GLG2160 SECU-SEQM

Flight info

Callsign GLG2160
Flight time 0h 29m
Altitude 27000
Route VUTNI2 VUTNI UW5 REBEK
Aircraft A20N/M-SDE2E3FGHIRWXY/LB1

Departure

Time 2026-05-04 03:07
Airport Mariscal Lamar Airport (SECU)

Arrival

Time 2026-05-04 03:36
Airport Mariscal Sucre International Airport (SEQM)
Time Latitude Longitude Altitude Speed Heading
2026-05-04 02:53 -2.89007 -78.98699 8292 ft 0 kts 322°
2026-05-04 02:58 -2.89012 -78.98695 8292 ft 2 kts 322°
2026-05-04 02:59 -2.89026 -78.98685 8293 ft 2 kts 322°
2026-05-04 02:59 -2.89033 -78.98671 8290 ft 2 kts 259°
2026-05-04 02:59 -2.89031 -78.98663 8291 ft 0 kts 231°
2026-05-04 03:02 -2.89041 -78.98676 8293 ft 7 kts 232°
2026-05-04 03:03 -2.89065 -78.98707 8294 ft 5 kts 232°
2026-05-04 03:03 -2.89112 -78.98767 8297 ft 13 kts 232°
2026-05-04 03:03 -2.89158 -78.98827 8301 ft 8 kts 232°
2026-05-04 03:03 -2.89185 -78.98861 8302 ft 4 kts 232°
2026-05-04 03:04 -2.89219 -78.98905 8305 ft 11 kts 232°
2026-05-04 03:04 -2.89262 -78.98961 8308 ft 11 kts 232°
2026-05-04 03:04 -2.89312 -78.99026 8312 ft 10 kts 232°
2026-05-04 03:04 -2.89345 -78.99068 8314 ft 5 kts 232°
2026-05-04 03:05 -2.89348 -78.99072 8311 ft 0 kts 232°
2026-05-04 03:06 -2.89375 -78.99101 8314 ft 10 kts 219°
2026-05-04 03:06 -2.89426 -78.99111 8316 ft 6 kts 164°
2026-05-04 03:06 -2.89445 -78.99080 8316 ft 9 kts 77°
2026-05-04 03:07 -2.89377 -78.98988 8311 ft 39 kts 51°
2026-05-04 03:07 -2.89050 -78.98568 8287 ft 114 kts 52°
2026-05-04 03:07 -2.88421 -78.97753 8407 ft 165 kts 55°
2026-05-04 03:07 -2.87694 -78.96881 9237 ft 161 kts 52°
2026-05-04 03:08 -2.86963 -78.96009 10046 ft 164 kts 53°
2026-05-04 03:08 -2.86225 -78.95118 10710 ft 173 kts 52°
2026-05-04 03:08 -2.85433 -78.94161 11173 ft 187 kts 53°
2026-05-04 03:08 -2.84571 -78.93094 11461 ft 208 kts 53°
2026-05-04 03:09 -2.83462 -78.92026 11697 ft 238 kts 35°
2026-05-04 03:09 -2.81798 -78.91437 11964 ft 270 kts 13°
2026-05-04 03:09 -2.79846 -78.91162 12319 ft 295 kts
2026-05-04 03:09 -2.77720 -78.90931 12635 ft 318 kts
2026-05-04 03:10 -2.75466 -78.90675 12985 ft 337 kts 10°
2026-05-04 03:10 -2.73073 -78.90319 13308 ft 354 kts 11°
2026-05-04 03:10 -2.70581 -78.89913 13609 ft 371 kts 12°
2026-05-04 03:10 -2.68036 -78.89488 14044 ft 379 kts 12°
2026-05-04 03:11 -2.65409 -78.89080 14539 ft 385 kts 11°
2026-05-04 03:11 -2.62751 -78.88693 15153 ft 386 kts 11°
2026-05-04 03:11 -2.60078 -78.88308 15674 ft 391 kts 11°
2026-05-04 03:11 -2.57378 -78.87918 16196 ft 395 kts 11°
2026-05-04 03:12 -2.54639 -78.87522 16748 ft 398 kts 11°
2026-05-04 03:12 -2.51885 -78.87124 17256 ft 401 kts 11°
2026-05-04 03:12 -2.49116 -78.86723 17774 ft 403 kts 11°
2026-05-04 03:12 -2.46325 -78.86318 18241 ft 406 kts 11°
2026-05-04 03:13 -2.43553 -78.85916 18676 ft 408 kts 11°
2026-05-04 03:13 -2.40721 -78.85505 19033 ft 412 kts 11°
2026-05-04 03:13 -2.37874 -78.85091 19371 ft 415 kts 11°
2026-05-04 03:13 -2.35010 -78.84675 19732 ft 417 kts 11°
2026-05-04 03:14 -2.32130 -78.84257 20050 ft 420 kts 11°
2026-05-04 03:14 -2.29230 -78.83836 20403 ft 422 kts 10°
2026-05-04 03:14 -2.26311 -78.83412 20753 ft 424 kts 10°
2026-05-04 03:14 -2.23385 -78.82989 21104 ft 426 kts 10°
2026-05-04 03:15 -2.20455 -78.82564 21449 ft 428 kts 10°
2026-05-04 03:15 -2.17488 -78.82133 21778 ft 431 kts 10°
2026-05-04 03:15 -2.14510 -78.81701 22104 ft 434 kts 10°
2026-05-04 03:15 -2.11545 -78.81271 22466 ft 436 kts
2026-05-04 03:16 -2.08547 -78.80836 22850 ft 438 kts
2026-05-04 03:16 -2.05509 -78.80396 23220 ft 440 kts
2026-05-04 03:16 -2.02473 -78.79956 23567 ft 443 kts
2026-05-04 03:16 -1.99404 -78.79511 23922 ft 446 kts
2026-05-04 03:17 -1.96331 -78.79064 24218 ft 448 kts
2026-05-04 03:17 -1.93226 -78.78613 24545 ft 450 kts
2026-05-04 03:17 -1.90111 -78.78161 24870 ft 452 kts
2026-05-04 03:17 -1.87032 -78.77714 25186 ft 454 kts
2026-05-04 03:18 -1.83905 -78.77260 25527 ft 455 kts
2026-05-04 03:18 -1.80756 -78.76803 25865 ft 458 kts
2026-05-04 03:18 -1.77610 -78.76347 26206 ft 460 kts
2026-05-04 03:18 -1.74425 -78.75885 26551 ft 462 kts
2026-05-04 03:19 -1.71238 -78.75423 26892 ft 464 kts
2026-05-04 03:19 -1.68043 -78.74960 27228 ft 466 kts
2026-05-04 03:19 -1.64847 -78.74496 27404 ft 467 kts
2026-05-04 03:19 -1.61581 -78.74023 27432 ft 469 kts
2026-05-04 03:20 -1.58393 -78.73560 27433 ft 471 kts
2026-05-04 03:20 -1.55134 -78.73088 27438 ft 471 kts
2026-05-04 03:20 -1.51885 -78.72616 27440 ft 471 kts
2026-05-04 03:20 -1.48638 -78.72146 27445 ft 471 kts
2026-05-04 03:21 -1.45388 -78.71674 27442 ft 471 kts
2026-05-04 03:21 -1.42138 -78.71203 27447 ft 471 kts 10°
2026-05-04 03:21 -1.38895 -78.70732 27447 ft 471 kts
2026-05-04 03:21 -1.35639 -78.70261 27452 ft 471 kts
2026-05-04 03:22 -1.32431 -78.69796 27455 ft 471 kts
2026-05-04 03:22 -1.29187 -78.69326 27452 ft 471 kts 10°
2026-05-04 03:22 -1.25949 -78.68856 27460 ft 471 kts 10°
2026-05-04 03:22 -1.22664 -78.68379 27470 ft 471 kts 10°
2026-05-04 03:23 -1.19453 -78.67914 27478 ft 471 kts 10°
2026-05-04 03:23 -1.16210 -78.67443 27490 ft 471 kts 10°
2026-05-04 03:23 -1.12973 -78.66974 27498 ft 471 kts 10°
2026-05-04 03:23 -1.09733 -78.66505 27505 ft 471 kts 10°
2026-05-04 03:24 -1.06473 -78.66032 27500 ft 472 kts 10°
2026-05-04 03:24 -1.03203 -78.65555 27068 ft 475 kts 10°
2026-05-04 03:24 -0.99927 -78.65077 26023 ft 478 kts 10°
2026-05-04 03:24 -0.96616 -78.64593 24846 ft 484 kts
2026-05-04 03:25 -0.93260 -78.64103 23734 ft 486 kts
2026-05-04 03:25 -0.89943 -78.63621 22327 ft 477 kts 10°
2026-05-04 03:25 -0.86686 -78.63148 21005 ft 469 kts 10°
2026-05-04 03:25 -0.83524 -78.62689 20188 ft 451 kts 10°
2026-05-04 03:26 -0.80480 -78.62247 19737 ft 434 kts 10°
2026-05-04 03:26 -0.77542 -78.61819 19543 ft 415 kts 11°
2026-05-04 03:26 -0.74750 -78.61414 19501 ft 396 kts 11°
2026-05-04 03:26 -0.72059 -78.61021 19193 ft 389 kts 11°
2026-05-04 03:27 -0.69406 -78.60633 18662 ft 385 kts 11°
2026-05-04 03:27 -0.66782 -78.60248 17928 ft 385 kts 11°
2026-05-04 03:27 -0.64145 -78.59862 17372 ft 381 kts 11°
2026-05-04 03:27 -0.61541 -78.59482 16940 ft 376 kts 11°
2026-05-04 03:28 -0.58953 -78.59104 16533 ft 376 kts 11°
2026-05-04 03:28 -0.56375 -78.58727 16107 ft 374 kts 11°
2026-05-04 03:28 -0.53801 -78.58352 15680 ft 373 kts 11°
2026-05-04 03:28 -0.51238 -78.57976 15260 ft 371 kts 11°
2026-05-04 03:29 -0.48725 -78.57472 14869 ft 368 kts 17°
2026-05-04 03:29 -0.46311 -78.56632 14477 ft 364 kts 26°
2026-05-04 03:29 -0.44098 -78.55450 14061 ft 361 kts 34°
2026-05-04 03:29 -0.41960 -78.54143 13661 ft 360 kts 33°
2026-05-04 03:30 -0.39893 -78.52755 13268 ft 356 kts 38°
2026-05-04 03:30 -0.37903 -78.51316 12897 ft 354 kts 37°
2026-05-04 03:30 -0.35867 -78.49920 12514 ft 353 kts 35°
2026-05-04 03:30 -0.33755 -78.48651 12156 ft 353 kts 30°
2026-05-04 03:31 -0.32312 -78.47961 12008 ft 342 kts 25°
2026-05-04 03:31 -0.29406 -78.46993 11723 ft 317 kts 15°
2026-05-04 03:31 -0.27340 -78.46545 11422 ft 290 kts 14°
2026-05-04 03:31 -0.25538 -78.45979 11068 ft 261 kts 27°
2026-05-04 03:32 -0.24133 -78.45004 10757 ft 236 kts 46°
2026-05-04 03:32 -0.23205 -78.43743 10402 ft 218 kts 64°
2026-05-04 03:32 -0.22619 -78.42386 10173 ft 205 kts 69°
2026-05-04 03:32 -0.22140 -78.41086 9917 ft 193 kts 70°
2026-05-04 03:33 -0.22039 -78.40807 9871 ft 190 kts 70°
2026-05-04 03:33 -0.21507 -78.39317 9660 ft 175 kts 70°
2026-05-04 03:33 -0.21241 -78.38571 9518 ft 168 kts 70°
2026-05-04 03:33 -0.20859 -78.37513 9325 ft 154 kts 69°
2026-05-04 03:34 -0.20398 -78.36590 9159 ft 146 kts 57°
2026-05-04 03:34 -0.19717 -78.35849 8961 ft 146 kts 39°
2026-05-04 03:34 -0.18826 -78.35363 8766 ft 146 kts 19°
2026-05-04 03:34 -0.18494 -78.35270 8705 ft 147 kts 13°
2026-05-04 03:35 -0.17742 -78.35212 8572 ft 146 kts
2026-05-04 03:35 -0.16728 -78.35284 8419 ft 146 kts 357°
2026-05-04 03:35 -0.15722 -78.35313 8257 ft 144 kts 359°
2026-05-04 03:35 -0.14718 -78.35350 8037 ft 143 kts 358°
2026-05-04 03:36 -0.13758 -78.35392 7912 ft 130 kts 358°
2026-05-04 03:36 -0.12949 -78.35422 7873 ft 105 kts 358°
2026-05-04 03:36 -0.12290 -78.35449 7838 ft 84 kts 357°
2026-05-04 03:36 -0.11897 -78.35467 7826 ft 28 kts 355°
2026-05-04 03:37 -0.11744 -78.35508 7823 ft 18 kts 336°
2026-05-04 03:37 -0.11661 -78.35554 7820 ft 13 kts 329°
2026-05-04 03:37 -0.11609 -78.35611 7817 ft 11 kts 269°
2026-05-04 03:37 -0.11655 -78.35645 7819 ft 7 kts 182°
2026-05-04 03:38 -0.11686 -78.35644 7821 ft 2 kts 178°
2026-05-04 03:38 -0.11733 -78.35642 7822 ft 17 kts 178°
2026-05-04 03:38 -0.11904 -78.35635 7829 ft 26 kts 176°
2026-05-04 03:38 -0.12056 -78.35628 7838 ft 18 kts 178°
2026-05-04 03:39 -0.12165 -78.35623 7843 ft 14 kts 176°
2026-05-04 03:39 -0.12253 -78.35620 7844 ft 12 kts 178°
2026-05-04 03:39 -0.12334 -78.35620 7842 ft 12 kts 195°
2026-05-04 03:39 -0.12360 -78.35688 7841 ft 9 kts 271°
2026-05-04 03:40 -0.12360 -78.35739 7837 ft 6 kts 266°
2026-05-04 03:40 -0.12363 -78.35776 7841 ft 5 kts 265°
2026-05-04 03:40 -0.12365 -78.35807 7844 ft 4 kts 265°
2026-05-04 03:40 -0.12393 -78.35841 7842 ft 11 kts 188°
2026-05-04 03:41 -0.12467 -78.35838 7837 ft 8 kts 178°
2026-05-04 03:41 -0.12523 -78.35836 7838 ft 9 kts 177°
2026-05-04 03:41 -0.12587 -78.35833 7844 ft 9 kts 177°
2026-05-04 03:41 -0.12606 -78.35863 7843 ft 2 kts 268°
2026-05-04 03:42 -0.12606 -78.35886 7842 ft 3 kts 268°
2026-05-04 03:42 -0.12607 -78.35900 7844 ft 2 kts 268°
2026-05-04 03:42 -0.12607 -78.35906 7844 ft 0 kts 268°